JBU317 KBOS-KJFK

Flight info

Callsign JBU317
Flight time 0h 45m
Altitude 22000
Route SSOXS7 SSOXS BUZRD SEY PARCH4
Aircraft A320/M-SDE3FGHIRWY/LB1

Departure

Time 2026-05-03 22:51
Airport Boston Logan International Airport (KBOS)

Arrival

Time 2026-05-03 23:36
Airport John F. Kennedy International Airport (KJFK)
Time Latitude Longitude Altitude Speed Heading
2026-05-03 22:23 42.36294 -71.01620 26 ft 0 kts 338°
2026-05-03 22:40 42.36274 -71.01611 30 ft 4 kts 349°
2026-05-03 22:40 42.36250 -71.01611 30 ft 4 kts 37°
2026-05-03 22:41 42.36244 -71.01625 28 ft 1 kts 109°
2026-05-03 22:41 42.36245 -71.01630 28 ft 0 kts 109°
2026-05-03 22:45 42.36245 -71.01629 28 ft 1 kts 109°
2026-05-03 22:45 42.36238 -71.01604 30 ft 5 kts 110°
2026-05-03 22:45 42.36221 -71.01542 26 ft 8 kts 107°
2026-05-03 22:46 42.36253 -71.01484 27 ft 9 kts 14°
2026-05-03 22:46 42.36318 -71.01443 27 ft 12 kts 25°
2026-05-03 22:46 42.36352 -71.01354 26 ft 12 kts 109°
2026-05-03 22:46 42.36306 -71.01246 27 ft 15 kts 120°
2026-05-03 22:47 42.36251 -71.01118 28 ft 17 kts 120°
2026-05-03 22:47 42.36196 -71.00967 28 ft 19 kts 112°
2026-05-03 22:47 42.36143 -71.00794 30 ft 21 kts 112°
2026-05-03 22:47 42.36093 -71.00605 27 ft 23 kts 107°
2026-05-03 22:48 42.36039 -71.00395 27 ft 24 kts 110°
2026-05-03 22:48 42.35979 -71.00172 27 ft 26 kts 110°
2026-05-03 22:48 42.35872 -70.99967 30 ft 28 kts 135°
2026-05-03 22:48 42.35730 -70.99781 28 ft 26 kts 135°
2026-05-03 22:49 42.35639 -70.99658 25 ft 18 kts 135°
2026-05-03 22:49 42.35573 -70.99572 30 ft 5 kts 135°
2026-05-03 22:49 42.35543 -70.99531 28 ft 8 kts 136°
2026-05-03 22:49 42.35500 -70.99470 28 ft 10 kts 124°
2026-05-03 22:50 42.35482 -70.99360 25 ft 15 kts 86°
2026-05-03 22:50 42.35545 -70.99285 27 ft 15 kts 342°
2026-05-03 22:50 42.35690 -70.99473 31 ft 57 kts 315°
2026-05-03 22:50 42.36110 -71.00042 23 ft 111 kts 315°
2026-05-03 22:51 42.36753 -71.00907 170 ft 141 kts 311°
2026-05-03 22:51 42.37468 -71.01837 726 ft 144 kts 313°
2026-05-03 22:51 42.38184 -71.02786 1245 ft 145 kts 305°
2026-05-03 22:51 42.38756 -71.03985 1575 ft 162 kts 295°
2026-05-03 22:52 42.39358 -71.05405 1866 ft 186 kts 296°
2026-05-03 22:52 42.40044 -71.07024 2262 ft 210 kts 296°
2026-05-03 22:52 42.40711 -71.08896 2696 ft 231 kts 279°
2026-05-03 22:52 42.40569 -71.11090 3242 ft 243 kts 243°
2026-05-03 22:53 42.39638 -71.13017 4155 ft 246 kts 233°
2026-05-03 22:53 42.38645 -71.14900 5175 ft 246 kts 233°
2026-05-03 22:53 42.37646 -71.16796 6133 ft 248 kts 233°
2026-05-03 22:53 42.36470 -71.18507 7003 ft 251 kts 216°
2026-05-03 22:54 42.34888 -71.19512 7881 ft 256 kts 196°
2026-05-03 22:54 42.33094 -71.19611 8813 ft 265 kts 176°
2026-05-03 22:54 42.31299 -71.18863 9693 ft 273 kts 167°
2026-05-03 22:54 42.29489 -71.17971 10318 ft 284 kts 167°
2026-05-03 22:55 42.27553 -71.17027 10544 ft 308 kts 166°
2026-05-03 22:55 42.25553 -71.15750 10977 ft 328 kts 155°
2026-05-03 22:55 42.23693 -71.13865 11598 ft 341 kts 145°
2026-05-03 22:55 42.21920 -71.11774 12273 ft 345 kts 146°
2026-05-03 22:56 42.20096 -71.09641 12970 ft 349 kts 146°
2026-05-03 22:56 42.18249 -71.07486 13626 ft 353 kts 147°
2026-05-03 22:56 42.16373 -71.05308 14214 ft 358 kts 147°
2026-05-03 22:56 42.14421 -71.03225 14761 ft 358 kts 153°
2026-05-03 22:57 42.12356 -71.01295 15317 ft 364 kts 154°
2026-05-03 22:57 42.10261 -70.99342 15875 ft 369 kts 154°
2026-05-03 22:57 42.08138 -70.97365 16427 ft 374 kts 155°
2026-05-03 22:57 42.05982 -70.95363 16984 ft 379 kts 155°
2026-05-03 22:58 42.03798 -70.93332 17534 ft 384 kts 155°
2026-05-03 22:58 42.01583 -70.91272 18062 ft 389 kts 156°
2026-05-03 22:58 41.99348 -70.89189 18567 ft 393 kts 156°
2026-05-03 22:58 41.97095 -70.87087 19092 ft 395 kts 156°
2026-05-03 22:59 41.94830 -70.84976 19647 ft 398 kts 156°
2026-05-03 22:59 41.92552 -70.82857 20198 ft 400 kts 157°
2026-05-03 22:59 41.90251 -70.80723 20717 ft 402 kts 158°
2026-05-03 22:59 41.87839 -70.78970 21207 ft 388 kts 171°
2026-05-03 23:00 41.85308 -70.77961 21658 ft 373 kts 182°
2026-05-03 23:00 41.82784 -70.77662 21798 ft 354 kts 194°
2026-05-03 23:00 41.80417 -70.78039 21849 ft 335 kts 204°
2026-05-03 23:00 41.78235 -70.78940 21828 ft 322 kts 212°
2026-05-03 23:01 41.76248 -70.80228 21866 ft 315 kts 218°
2026-05-03 23:01 41.74339 -70.81672 21864 ft 315 kts 218°
2026-05-03 23:01 41.72425 -70.83108 21867 ft 315 kts 218°
2026-05-03 23:01 41.70512 -70.84535 21869 ft 315 kts 218°
2026-05-03 23:02 41.68594 -70.85967 21873 ft 316 kts 218°
2026-05-03 23:02 41.66674 -70.87402 21869 ft 316 kts 218°
2026-05-03 23:02 41.64755 -70.88836 21883 ft 316 kts 217°
2026-05-03 23:02 41.62829 -70.90270 21883 ft 317 kts 217°
2026-05-03 23:03 41.60902 -70.91703 21870 ft 317 kts 217°
2026-05-03 23:03 41.58973 -70.93141 21873 ft 317 kts 217°
2026-05-03 23:03 41.57047 -70.94580 21874 ft 317 kts 217°
2026-05-03 23:03 41.55180 -70.96112 21874 ft 312 kts 224°
2026-05-03 23:04 41.53602 -70.98042 21879 ft 306 kts 233°
2026-05-03 23:04 41.52256 -71.00233 21877 ft 305 kts 234°
2026-05-03 23:04 41.50915 -71.02426 21877 ft 305 kts 234°
2026-05-03 23:04 41.49569 -71.04619 21876 ft 305 kts 234°
2026-05-03 23:05 41.48223 -71.06812 21874 ft 306 kts 234°
2026-05-03 23:05 41.46874 -71.09005 21871 ft 306 kts 234°
2026-05-03 23:05 41.45522 -71.11200 21871 ft 306 kts 234°
2026-05-03 23:05 41.44168 -71.13397 21848 ft 306 kts 234°
2026-05-03 23:06 41.42818 -71.15588 21865 ft 306 kts 234°
2026-05-03 23:06 41.41469 -71.17780 21872 ft 306 kts 234°
2026-05-03 23:06 41.40120 -71.19965 21876 ft 305 kts 234°
2026-05-03 23:06 41.38769 -71.22153 21878 ft 305 kts 234°
2026-05-03 23:07 41.37422 -71.24333 21884 ft 305 kts 234°
2026-05-03 23:07 41.36189 -71.26328 21893 ft 305 kts 234°
2026-05-03 23:07 41.34840 -71.28506 21897 ft 305 kts 234°
2026-05-03 23:07 41.33943 -71.29954 21903 ft 305 kts 234°
2026-05-03 23:08 41.32592 -71.32134 21913 ft 306 kts 234°
2026-05-03 23:08 41.31240 -71.34318 21916 ft 306 kts 234°
2026-05-03 23:08 41.29889 -71.36501 21917 ft 306 kts 234°
2026-05-03 23:08 41.28533 -71.38686 21920 ft 306 kts 234°
2026-05-03 23:09 41.27177 -71.40871 21930 ft 306 kts 234°
2026-05-03 23:09 41.25819 -71.43054 21931 ft 307 kts 234°
2026-05-03 23:09 41.24459 -71.45236 21933 ft 307 kts 234°
2026-05-03 23:09 41.23091 -71.47425 21934 ft 307 kts 234°
2026-05-03 23:10 41.21726 -71.49607 21943 ft 307 kts 234°
2026-05-03 23:10 41.20359 -71.51794 21939 ft 308 kts 234°
2026-05-03 23:10 41.18994 -71.53985 21937 ft 308 kts 234°
2026-05-03 23:10 41.17685 -71.56228 21946 ft 306 kts 240°
2026-05-03 23:11 41.16750 -71.58752 21939 ft 306 kts 250°
2026-05-03 23:11 41.16256 -71.61504 21936 ft 308 kts 258°
2026-05-03 23:11 41.15921 -71.64307 21931 ft 308 kts 258°
2026-05-03 23:11 41.15579 -71.67113 21929 ft 309 kts 258°
2026-05-03 23:12 41.15229 -71.69930 21935 ft 309 kts 258°
2026-05-03 23:12 41.14876 -71.72749 21931 ft 310 kts 258°
2026-05-03 23:12 41.14522 -71.75567 21903 ft 310 kts 258°
2026-05-03 23:12 41.14169 -71.78387 21924 ft 310 kts 258°
2026-05-03 23:13 41.13817 -71.81206 21946 ft 310 kts 258°
2026-05-03 23:13 41.13466 -71.84023 21950 ft 310 kts 258°
2026-05-03 23:13 41.13116 -71.86840 21952 ft 310 kts 258°
2026-05-03 23:13 41.12762 -71.89662 21953 ft 310 kts 258°
2026-05-03 23:14 41.12408 -71.92481 21960 ft 310 kts 258°
2026-05-03 23:14 41.12052 -71.95307 21954 ft 311 kts 258°
2026-05-03 23:14 41.11697 -71.98133 21951 ft 311 kts 258°
2026-05-03 23:14 41.11340 -72.00969 21950 ft 312 kts 258°
2026-05-03 23:15 41.10977 -72.03802 21956 ft 312 kts 258°
2026-05-03 23:15 41.10613 -72.06640 21953 ft 312 kts 258°
2026-05-03 23:15 41.10250 -72.09480 21951 ft 313 kts 258°
2026-05-03 23:15 41.09847 -72.12312 21947 ft 312 kts 253°
2026-05-03 23:16 41.09181 -72.15074 21918 ft 316 kts 251°
2026-05-03 23:16 41.08499 -72.17820 21456 ft 312 kts 251°
2026-05-03 23:16 41.07821 -72.20551 20893 ft 311 kts 252°
2026-05-03 23:16 41.07147 -72.23272 20346 ft 310 kts 252°
2026-05-03 23:17 41.06476 -72.25986 19824 ft 309 kts 252°
2026-05-03 23:17 41.05804 -72.28695 19257 ft 310 kts 252°
2026-05-03 23:17 41.05132 -72.31403 18718 ft 309 kts 252°
2026-05-03 23:17 41.04461 -72.34099 18206 ft 308 kts 253°
2026-05-03 23:18 41.03794 -72.36773 17755 ft 303 kts 253°
2026-05-03 23:18 41.03143 -72.39392 17358 ft 296 kts 253°
2026-05-03 23:18 41.02504 -72.41956 17045 ft 289 kts 253°
2026-05-03 23:18 41.01881 -72.44447 16712 ft 283 kts 253°
2026-05-03 23:19 41.01275 -72.46871 16356 ft 279 kts 253°
2026-05-03 23:19 41.00663 -72.49326 15993 ft 275 kts 253°
2026-05-03 23:19 41.00065 -72.51718 15659 ft 272 kts 253°
2026-05-03 23:19 40.99473 -72.54085 15315 ft 270 kts 253°
2026-05-03 23:20 40.98892 -72.56401 14984 ft 268 kts 253°
2026-05-03 23:20 40.98307 -72.58733 14642 ft 266 kts 253°
2026-05-03 23:20 40.97725 -72.61048 14307 ft 265 kts 252°
2026-05-03 23:20 40.97143 -72.63353 13965 ft 263 kts 252°
2026-05-03 23:21 40.96566 -72.65647 13619 ft 262 kts 253°
2026-05-03 23:21 40.95990 -72.67931 13257 ft 261 kts 252°
2026-05-03 23:21 40.95416 -72.70192 12922 ft 258 kts 253°
2026-05-03 23:21 40.94848 -72.72432 12594 ft 256 kts 252°
2026-05-03 23:22 40.93722 -72.76860 12053 ft 254 kts 253°
2026-05-03 23:22 40.93033 -72.79010 11788 ft 255 kts 242°
2026-05-03 23:22 40.91915 -72.80842 11450 ft 259 kts 227°
2026-05-03 23:23 40.90472 -72.82296 11095 ft 261 kts 221°
2026-05-03 23:23 40.88997 -72.83700 10713 ft 262 kts 221°
2026-05-03 23:23 40.87518 -72.85113 10358 ft 262 kts 221°
2026-05-03 23:23 40.86042 -72.86528 10022 ft 262 kts 221°
2026-05-03 23:24 40.84570 -72.87942 9675 ft 262 kts 221°
2026-05-03 23:24 40.83098 -72.89356 9317 ft 261 kts 221°
2026-05-03 23:24 40.81635 -72.90759 9039 ft 258 kts 221°
2026-05-03 23:24 40.80173 -72.92157 9006 ft 260 kts 221°
2026-05-03 23:25 40.78704 -72.93563 9008 ft 262 kts 221°
2026-05-03 23:25 40.77227 -72.94973 8939 ft 262 kts 220°
2026-05-03 23:25 40.75756 -72.96376 8754 ft 259 kts 221°
2026-05-03 23:25 40.74300 -72.97765 8438 ft 258 kts 221°
2026-05-03 23:26 40.72853 -72.99149 8099 ft 257 kts 221°
2026-05-03 23:26 40.71405 -73.00530 7749 ft 257 kts 220°
2026-05-03 23:26 40.70021 -73.02001 7387 ft 254 kts 230°
2026-05-03 23:26 40.69044 -73.03895 7077 ft 248 kts 249°
2026-05-03 23:27 40.68417 -73.06000 7003 ft 248 kts 251°
2026-05-03 23:27 40.67786 -73.08129 7001 ft 250 kts 250°
2026-05-03 23:27 40.67152 -73.10263 7001 ft 250 kts 250°
2026-05-03 23:27 40.66516 -73.12403 7011 ft 251 kts 250°
2026-05-03 23:28 40.65883 -73.14540 7010 ft 250 kts 251°
2026-05-03 23:28 40.65253 -73.16678 7002 ft 250 kts 251°
2026-05-03 23:28 40.64623 -73.18814 7004 ft 250 kts 251°
2026-05-03 23:28 40.63994 -73.20945 7006 ft 250 kts 251°
2026-05-03 23:29 40.63362 -73.23081 7010 ft 250 kts 251°
2026-05-03 23:29 40.62733 -73.25213 7005 ft 250 kts 251°
2026-05-03 23:29 40.62102 -73.27350 7007 ft 250 kts 251°
2026-05-03 23:29 40.61472 -73.29486 7008 ft 250 kts 251°
2026-05-03 23:30 40.60840 -73.31618 6903 ft 251 kts 251°
2026-05-03 23:30 40.60195 -73.33796 6485 ft 254 kts 251°
2026-05-03 23:30 40.59559 -73.35925 6301 ft 247 kts 251°
2026-05-03 23:30 40.58935 -73.38022 5987 ft 246 kts 251°
2026-05-03 23:31 40.58313 -73.40113 5637 ft 246 kts 251°
2026-05-03 23:31 40.57693 -73.42206 5297 ft 245 kts 251°
2026-05-03 23:31 40.57070 -73.44297 4955 ft 246 kts 250°
2026-05-03 23:31 40.56431 -73.46439 4278 ft 258 kts 250°
2026-05-03 23:32 40.55765 -73.48675 3782 ft 263 kts 250°
2026-05-03 23:32 40.55107 -73.50882 3602 ft 255 kts 250°
2026-05-03 23:32 40.54663 -73.53078 3477 ft 244 kts 269°
2026-05-03 23:32 40.54981 -73.55237 3366 ft 241 kts 295°
2026-05-03 23:33 40.55802 -73.57109 3256 ft 232 kts 300°
2026-05-03 23:33 40.56618 -73.58887 3156 ft 222 kts 300°
2026-05-03 23:33 40.57401 -73.60599 2956 ft 217 kts 300°
2026-05-03 23:33 40.58192 -73.62339 2501 ft 224 kts 300°
2026-05-03 23:34 40.58991 -73.64095 2154 ft 224 kts 300°
2026-05-03 23:34 40.59791 -73.65857 1833 ft 224 kts 300°
2026-05-03 23:34 40.60579 -73.67610 1632 ft 218 kts 300°
2026-05-03 23:34 40.61306 -73.69275 1677 ft 203 kts 299°
2026-05-03 23:35 40.61974 -73.70838 1433 ft 189 kts 300°
2026-05-03 23:35 40.62660 -73.72249 1046 ft 178 kts 303°
2026-05-03 23:35 40.63304 -73.73592 571 ft 169 kts 299°
2026-05-03 23:35 40.63887 -73.74915 212 ft 157 kts 301°
2026-05-03 23:36 40.64408 -73.76015 81 ft 129 kts 300°
2026-05-03 23:36 40.64816 -73.76925 23 ft 97 kts 303°
2026-05-03 23:36 40.65012 -73.77334 19 ft 19 kts 300°
2026-05-03 23:36 40.64960 -73.77474 19 ft 19 kts 217°
2026-05-03 23:37 40.64874 -73.77551 21 ft 12 kts 203°
2026-05-03 23:37 40.64829 -73.77602 23 ft 3 kts 266°
2026-05-03 23:37 40.64828 -73.77615 23 ft 3 kts 266°
2026-05-03 23:37 40.64816 -73.77652 24 ft 6 kts 229°
2026-05-03 23:38 40.64785 -73.77674 23 ft 3 kts 202°
2026-05-03 23:38 40.64758 -73.77686 23 ft 2 kts 199°